DELTA 1 DEB, 21352

Orbit data source: Space-Track

DELTA 1 DEB, 21352 is space debris in SSO originally from a launch on Thu, 12 Jun 1975 UTC launched from the Air Force Western Test Range (AFWTR). Debris objects in space refer to the collection of defunct objects orbiting the Earth. Examples of debris include non-operational satellites, rocket bodies, and fragments generated from explosions, collisions, or faulty payload assembly.

Loading next visibility...
Identifier
21352, 1975-052BW
Orbit
SSO
Country
Flag of USUS
Related business
Manufacturer
Unknown
Mission
Spacecraft
Bus & Motor
Unknown
Mass
Unknown
Launch date (UTC)
1975-06-12 (51 years ago)
Launch vehicle
Unknown
Launch site
Air Force Western Test Range (AFWTR)
Object type
Payload
Rocket body
Debris
Shape & HBR
Unknown shape, 0.1 m
Radar Cross Section
Medium (>0.1 m² and <1 m²)

Expand to show TLE details & history
Last TLE update: 3 days ago

TLE from 3 days ago
0 DELTA 1 DEB
1 21352U 75052BW  26170.11674523  .00000982  00000-0  20932-2 0  9994
2 21352  99.5287 221.1476 0286766 202.3028 184.8281 13.18662893674343
Epoch: 2026-06-19T02:48Z
TLE epoch observation values (Epoch: 2026-06-19T02:48:06.787Z)
Latitude
26.49709°
Longitude
-93.00752°
Altitude
1,409.25 km
Speed
7.055 km/s
True Right ascension
14h 25m 29s
True Declination
26° 22' 17"
Sunlit
Object was in daylight at epoch
Visualization orbit readout
Latitude
Unknown
Longitude
Unknown
Altitude
Unknown
Speed
Unknown
Apparent Right ascension
Unknown
Apparent Declination
Unknown
Sunlit
N/A
Visualization observer readout
Local Sidereal Time
14:36:55
Azimuth
Unknown
Elevation
Unknown
Doppler factor
Unknown
Orbital elements
Apogee altitude
1,404.11 km
Perigee altitude
970.216 km
Semi-major axis
7,565.3 km
Eccentricity
0.02868
Inclination
99.5287°
RAAN
221.1476°
Arg. of periapsis
202.3028°
True anomaly
184.56107°
Mean anomaly
184.8281°
Eccentric anomaly
184.69365°
Mean motion
3.2984 °/min
Orbital period
109.14 mins
BSTAR
0.0020932
Loading maneuver chart data...
Computing Atmospheric mass density...
Loading historical data...
Loading historical data...
Loading historical data...
Loading historical data...
Loading historical data...
Loading historical data...
Loading historical data...

Documentation

Showing up to 5 results
|